SCP
0 0 0 0 0 0 0 0 0 0 0 0 0 0 0 0 0 0 0 0 0 0
0 0 0 0 0 0 0 0 0 0 0 0 0 0 0 0 0 0 0 0 0 0
0 0 0 0 0 0 0 0 0 0 0 0 0 0 0 0 0 0 0 0 0 0
0 0 0 0 0 0 0 0 0 0 0 0 0 0 0 0 0 0 0 0 0 0
0 0 0 0 0 0 0 0 0 0 0 0 0 0 0 0 0 0 0 0 0 0
0 0 0 0 0 0 0 0 0 0 0 0 0 0 0 0 0 0 0 0 0 0
0 0 0 0 0 0 0 0 0 0 0 0 0 0 0 0 0 0 0 0 0 0
0 0 0 0 0 0 0 0 0 0 0 0 0 0 0 0 0 0 0 0 0 0
0 0 0 0 0 0 0 0 0 0 0 0 0 0 0 0 0 0 0 0 0 0
0 0 0 0 0 0 0 0 0 0 0 0 0 0 0 0 0 0 0 0 0 0
0 0 0 0 0 0 0 0 0 0 0 0 0 0 0 0 0 0 0 0 0 0
0 0 0 0 0 0 0 0 0 0 0 0 0 0 0 0 0 0 0 0 0 0
0 0 0 0 0 0 0 0 0 0 0 0 0 0 0 0 0 0 0 0 0 0
0 0 0 0 0 0 0 0 0 0 0 0 0 0 0 0 0 0 0 0 0 0
Wind_Speed_500mb
82 76 70 60 66 71 74 70 64 56 48 42 35 28 21 14 8 4 3 3 5 7
76 74 73 66 74 78 76 70 63 55 48 41 33 26 20 12 7 4 1 3 4 4
75 75 76 76 80 78 73 67 61 56 49 41 35 28 20 14 10 6 3 4 5 4
77 76 76 79 80 79 74 68 62 56 50 44 37 30 23 16 12 8 9 9 8 7
75 77 82 85 86 80 72 66 60 55 50 45 38 30 23 17 14 12 13 13 12 11
79 82 87 90 86 80 74 69 64 58 52 45 38 30 24 18 14 15 16 17 16 15
84 84 90 91 87 83 78 72 67 60 52 45 37 31 26 22 19 19 21 22 21 20
87 88 95 94 89 84 79 73 66 60 54 47 40 33 28 28 24 25 28 27 27 27
90 93 96 93 90 86 81 74 67 62 56 50 38 36 39 36 33 32 33 33 32 34
92 93 96 93 89 85 79 74 70 63 55 43 44 40 46 44 40 37 37 37 38 38
93 93 94 92 88 84 81 76 71 61 48 49 50 47 50 51 45 43 42 43 43 43
94 91 92 92 90 86 82 77 66 55 56 59 61 52 58 55 52 50 48 50 50 50
88 90 90 88 85 81 76 64 71 59 64 69 58 55 58 58 59 58 57 57 56 58
85 84 82 80 81 75 67 68 63 71 68 75 51 57 65 61 64 62 62 63 65 65
Wind_Direction_500mb
212 207 204 212 212 203 191 186 182 181 181 182 181 177 170 165 150 117 54 6 351 350
209 209 209 209 208 196 190 186 183 182 184 184 180 178 172 168 160 152 97 358 330 318
214 211 212 209 202 194 191 190 188 186 187 185 182 181 181 183 179 184 196 229 234 256
215 214 212 208 199 196 195 193 193 192 191 190 188 185 188 186 187 193 204 205 213 238
218 216 210 204 199 197 197 196 197 195 194 193 191 191 192 197 197 204 203 204 216 238
221 217 208 203 201 199 200 200 197 199 198 197 196 196 196 204 211 214 213 218 230 244
223 216 208 205 204 203 202 201 201 199 200 199 200 202 211 218 222 226 230 234 243 255
219 214 211 208 207 206 204 204 204 202 200 200 204 215 225 231 234 238 242 247 255 262
213 211 212 211 210 208 206 205 205 205 206 208 218 219 244 233 240 243 249 255 261 267
212 210 212 213 212 211 210 209 209 208 210 219 223 241 237 241 243 249 255 260 264 269
215 212 213 214 214 213 213 213 214 212 223 231 231 239 244 243 247 253 257 261 264 268
217 215 215 215 215 214 215 215 217 223 227 231 242 237 243 247 254 257 260 261 263 267
220 221 220 219 218 217 218 223 227 229 235 234 249 240 245 251 257 261 264 266 269 271
225 225 224 222 220 215 233 230 224 236 237 241 255 242 246 251 258 264 270 274 274 275
Wind_Speed_850mb
82 76 70 60 66 71 74 70 64 56 48 42 35 28 21 14 8 4 3 3 5 7
76 74 73 66 74 78 76 70 63 55 48 41 33 26 20 12 7 4 1 3 4 4
75 75 76 76 80 78 73 67 61 56 49 41 35 28 20 14 10 6 3 4 5 4
77 76 76 79 80 79 74 68 62 56 50 44 37 30 23 16 12 8 9 9 8 7
75 77 82 85 86 80 72 66 60 55 50 45 38 30 23 17 14 12 13 13 12 11
79 82 87 90 86 80 74 69 64 58 52 45 38 30 24 18 14 15 16 17 16 15
84 84 90 91 87 83 78 72 67 60 52 45 37 31 26 22 19 19 21 22 21 20
87 88 95 94 89 84 79 73 66 60 54 47 40 33 28 28 24 25 28 27 27 27
90 93 96 93 90 86 81 74 67 62 56 50 38 36 39 36 33 32 33 33 32 34
92 93 96 93 89 85 79 74 70 63 55 43 44 40 46 44 40 37 37 37 38 38
93 93 94 92 88 84 81 76 71 61 48 49 50 47 50 51 45 43 42 43 43 43
94 91 92 92 90 86 82 77 66 55 56 59 61 52 58 55 52 50 48 50 50 50
88 90 90 88 85 81 76 64 71 59 64 69 58 55 58 58 59 58 57 57 56 58
85 84 82 80 81 75 67 68 63 71 68 75 51 57 65 61 64 62 62 63 65 65
Wind_Direction_850mb
212 207 204 212 212 203 191 186 182 181 181 182 181 177 170 165 150 117 54 6 351 350
209 209 209 209 208 196 190 186 183 182 184 184 180 178 172 168 160 152 97 358 330 318
214 211 212 209 202 194 191 190 188 186 187 185 182 181 181 183 179 184 196 229 234 256
215 214 212 208 199 196 195 193 193 192 191 190 188 185 188 186 187 193 204 205 213 238
218 216 210 204 199 197 197 196 197 195 194 193 191 191 192 197 197 204 203 204 216 238
221 217 208 203 201 199 200 200 197 199 198 197 196 196 196 204 211 214 213 218 230 244
223 216 208 205 204 203 202 201 201 199 200 199 200 202 211 218 222 226 230 234 243 255
219 214 211 208 207 206 204 204 204 202 200 200 204 215 225 231 234 238 242 247 255 262
213 211 212 211 210 208 206 205 205 205 206 208 218 219 244 233 240 243 249 255 261 267
212 210 212 213 212 211 210 209 209 208 210 219 223 241 237 241 243 249 255 260 264 269
215 212 213 214 214 213 213 213 214 212 223 231 231 239 244 243 247 253 257 261 264 268
217 215 215 215 215 214 215 215 217 223 227 231 242 237 243 247 254 257 260 261 263 267
220 221 220 219 218 217 218 223 227 229 235 234 249 240 245 251 257 261 264 266 269 271
225 225 224 222 220 215 233 230 224 236 237 241 255 242 246 251 258 264 270 274 274 275